Location: ?p Thanh B�nh
(16.5833°N, 107.5333°E)
Time: 10:18:37
(UTC+00:00)

Cosmos 1190 Rocket - Pass Details

Date: 29 October 2020
Orbit: 757 x 779 km, 74.1° (Epoch: 23 November)

Event Time Altitude Azimuth Distance (km) Brightness Sun altitude
Rises 22:01:48 0° 206° (SSW) 3,237 7.1 -11.3°
Reaches altitude 10° 22:04:16 10° 213° (SSW) 2,308 6.3 -10.8°
Maximum altitude 22:09:16 45° 285° (WNW) 1,037 4.3 -9.6°
Drops below altitude 10° 22:14:14 10° 357° (N) 2,297 6.3 -8.4°
Sets 22:16:42 0° 4° (N) 3,220 7.1 -7.9°
